COSMOS 921 DEB

Satellite information

Favourite Embed

Satellite Type and Status

DEBRISIN ORBIT

Key statistics

Satellite COSMOS 921 DEB at a glance.

Uptime

17658

Days in orbit

Revolutions

≈ 15.5

Per day

Orbit

LEO

Low Earth Orbit

Inclination

75.8

Latest

Satellite identification and parameters

Extended collection of information and parameters for COSMOS 921 DEB.

Object identification

Identified? True

Debris? True

Object name: COSMOS 921 DEB

International designator: 1977-055C

Object number (NORAD): 39690

Object ID (CCSDS): 39690

Country: COMMONWEALTH OF INDEPENDENT STATES (CIS)

Current information (Y/N): Y

RCS size: SMALL

Orbital parameters

Period: 92.96 minutes

Inclination: 75.8162 deg

SMA: 6797.636 km

Apoapsis: 430.934 km

Periapsis: 408.069 km

RAAN: 66.9393 deg

Eccentricy: 0.00168186

Argument of periapsis: 9.8005 deg

Mean anomaly: 350.3542 deg

Mean motion: 15.4905154 rev/day

Mean motion (dot): 0.00054094 rev/day2

B* drag term: 0.00098618422 1/REarth

Two-line elements (TLE)

Creation date: Oct. 27, 2025, 10:32 a.m.

Reference frame: TEME

Reference center: EARTH

Epoch: Oct. 27, 2025, 1:35 a.m. UTC

TLE line 0: 0 COSMOS 921 DEB

TLE line 1: 1 39690U 77055C 25300.06617986 .00054094 00000-0 98618-3 0 9991

TLE line 2: 2 39690 75.8162 66.9393 0016819 9.8005 350.3542 15.49051540633964

Live tracking on map

Real-time ground track for satellite COSMOS 921 DEB.

In-orbit conjunctions

A list of the most updated potential collisions computed for object COSMOS 921 DEB.

Target Orbit TCA Probability of collision Miss distance Type
FENGYUN 1C DEB SSO 2025-05-26 00:04:21 0.0001403669 286.0 (m) DEBRIS

Associated space launch

Dynamic simulator of the Tselina-D ELINT satellite

COSMOS 921 DEB was lifted into orbit during the mission ‘Tsiklon-3 | EPN 03.0380 1’, on board a Tsiklon-3 space rocket.

The launch took place on June 24, 1977, 10:30 a.m. from 32/2.

For more information about the launch, click the button.

Launch to space Tsiklon-3 | EPN 03.0380 1
Tsiklon-3 | EPN 03.0380 1

Agency: N/A

Status: Launch Successful

Launch date: June 24, 1977, 10:30 a.m. UTC

Rocket: Tsiklon-3

Launch pad: 32/2

Location: Plesetsk Cosmodrome, Russian Federation

...

Latest news about this satellite

There are no fresh news available about this satellite. Check back as we update our databases every day.


Newsletter sign-up

Weekly statistics, charts and insights to help you stay on top of the space industry.